TimeCST,TemperatureF,Dew PointF,Humidity,Sea Level PressureIn,VisibilityMPH,Wind Direction,Wind SpeedMPH,Gust SpeedMPH,PrecipitationIn,Events,Conditions,WindDirDegrees,DateUTC
12:15 AM,32.0,32.0,100,30.06,10.0,NNE,6.9,-,N/A,,Overcast,20,2013-02-03 06:15:00
12:35 AM,32.0,30.2,93,30.05,10.0,Calm,Calm,-,N/A,,Mostly Cloudy,0,2013-02-03 06:35:00
12:55 AM,32.0,30.2,93,30.04,10.0,SSW,3.5,-,N/A,,Partly Cloudy,200,2013-02-03 06:55:00
1:15 AM,28.4,28.4,100,30.04,8.0,Calm,Calm,-,N/A,,Clear,0,2013-02-03 07:15:00
1:35 AM,28.4,28.4,100,30.04,9.0,Calm,Calm,-,N/A,,Clear,0,2013-02-03 07:35:00
1:55 AM,28.4,28.4,100,30.04,4.0,Calm,Calm,-,N/A,,Clear,0,2013-02-03 07:55:00
2:15 AM,28.4,28.4,100,30.04,5.0,Calm,Calm,-,N/A,,Clear,0,2013-02-03 08:15:00
2:35 AM,28.4,28.4,100,30.05,7.0,WNW,3.5,-,N/A,,Clear,290,2013-02-03 08:35:00
2:55 AM,28.4,28.4,100,30.05,7.0,Calm,Calm,-,N/A,,Scattered Clouds,0,2013-02-03 08:55:00
3:15 AM,26.6,26.6,100,30.05,0.5,Calm,Calm,-,N/A,Fog,Light Freezing Fog,0,2013-02-03 09:15:00
3:55 AM,28.4,28.4,100,30.04,7.0,North,3.5,-,N/A,,Clear,360,2013-02-03 09:55:00
4:15 AM,28.4,28.4,100,30.05,10.0,NNW,4.6,-,N/A,,Partly Cloudy,340,2013-02-03 10:15:00
4:35 AM,28.4,28.4,100,30.05,10.0,North,4.6,-,N/A,,Clear,350,2013-02-03 10:35:00
4:55 AM,28.4,28.4,100,30.06,10.0,North,5.8,-,N/A,,Clear,350,2013-02-03 10:55:00
5:15 AM,30.2,28.4,93,30.07,10.0,NNW,5.8,-,N/A,,Clear,340,2013-02-03 11:15:00
5:35 AM,30.2,28.4,93,30.07,10.0,NNW,6.9,-,N/A,,Clear,340,2013-02-03 11:35:00
5:55 AM,30.2,28.4,93,30.07,10.0,NNW,8.1,-,N/A,,Mostly Cloudy,330,2013-02-03 11:55:00
6:15 AM,28.4,26.6,93,30.08,10.0,NW,6.9,-,N/A,,Mostly Cloudy,320,2013-02-03 12:15:00
6:35 AM,30.2,26.6,86,30.08,10.0,NW,9.2,-,N/A,,Mostly Cloudy,320,2013-02-03 12:35:00
6:55 AM,32.0,26.6,80,30.08,10.0,NW,12.7,-,N/A,,Scattered Clouds,320,2013-02-03 12:55:00
7:15 AM,32.0,24.8,75,30.10,10.0,NW,19.6,27.6,N/A,,Partly Cloudy,320,2013-02-03 13:15:00
7:35 AM,32.0,23.0,69,30.11,10.0,NW,15.0,21.9,N/A,,Clear,320,2013-02-03 13:35:00
7:55 AM,32.0,23.0,69,30.12,10.0,NW,17.3,23.0,N/A,,Clear,320,2013-02-03 13:55:00
8:15 AM,32.0,23.0,69,30.13,10.0,NW,24.2,29.9,N/A,,Mostly Cloudy,310,2013-02-03 14:15:00
8:35 AM,32.0,23.0,69,30.14,10.0,NW,19.6,26.5,N/A,,Overcast,310,2013-02-03 14:35:00
9:15 AM,28.4,19.4,69,30.16,10.0,NW,24.2,32.2,N/A,,Overcast,310,2013-02-03 15:15:00
9:35 AM,30.2,19.4,64,30.17,10.0,NW,19.6,29.9,N/A,,Overcast,310,2013-02-03 15:35:00
10:15 AM,30.2,19.4,64,30.20,10.0,NW,21.9,28.8,N/A,,Overcast,320,2013-02-03 16:15:00
10:35 AM,32.0,19.4,60,30.20,10.0,NW,17.3,24.2,N/A,,Mostly Cloudy,310,2013-02-03 16:35:00
10:55 AM,32.0,19.4,60,30.20,10.0,WNW,19.6,23.0,N/A,,Scattered Clouds,300,2013-02-03 16:55:00
11:15 AM,32.0,17.6,55,30.21,10.0,NW,18.4,21.9,N/A,,Partly Cloudy,320,2013-02-03 17:15:00
11:35 AM,32.0,17.6,55,30.20,10.0,NNW,17.3,21.9,N/A,,Clear,330,2013-02-03 17:35:00
11:55 AM,32.0,15.8,51,30.21,10.0,NW,13.8,21.9,N/A,,Clear,310,2013-02-03 17:55:00
12:15 PM,32.0,15.8,51,30.21,10.0,NW,18.4,24.2,N/A,,Clear,310,2013-02-03 18:15:00
12:35 PM,32.0,15.8,51,30.21,10.0,NW,17.3,21.9,N/A,,Clear,310,2013-02-03 18:35:00
12:55 PM,32.0,14.0,48,30.20,10.0,NNW,10.4,-,N/A,,Clear,340,2013-02-03 18:55:00
1:15 PM,35.6,14.0,41,30.19,10.0,NW,9.2,-,N/A,,Clear,310,2013-02-03 19:15:00
1:35 PM,35.6,12.2,38,30.18,10.0,North,10.4,16.1,N/A,,Clear,350,2013-02-03 19:35:00
1:55 PM,35.6,10.4,35,30.17,10.0,NW,11.5,-,N/A,,Clear,320,2013-02-03 19:55:00
2:15 PM,35.6,10.4,35,30.17,10.0,NNW,9.2,-,N/A,,Clear,340,2013-02-03 20:15:00
2:35 PM,37.4,10.4,33,30.17,10.0,NNW,9.2,-,N/A,,Clear,340,2013-02-03 20:35:00
2:55 PM,35.6,8.6,33,30.16,10.0,North,6.9,-,N/A,,Clear,360,2013-02-03 20:55:00
3:15 PM,37.4,10.4,33,30.16,10.0,North,9.2,-,N/A,,Clear,350,2013-02-03 21:15:00
3:35 PM,35.6,8.6,33,30.16,10.0,WNW,8.1,-,N/A,,Clear,300,2013-02-03 21:35:00
3:55 PM,37.4,10.4,33,30.15,10.0,NNW,5.8,-,N/A,,Clear,340,2013-02-03 21:55:00
4:15 PM,37.4,10.4,33,30.14,10.0,NNW,3.5,-,N/A,,Clear,340,2013-02-03 22:15:00
4:35 PM,35.6,8.6,33,30.13,10.0,Calm,Calm,-,N/A,,Clear,0,2013-02-03 22:35:00
4:55 PM,35.6,8.6,33,30.13,10.0,Calm,Calm,-,N/A,,Clear,0,2013-02-03 22:55:00
5:15 PM,35.6,8.6,33,30.12,10.0,Calm,Calm,-,N/A,,Clear,0,2013-02-03 23:15:00
5:35 PM,33.8,10.4,38,30.12,10.0,Calm,Calm,-,N/A,,Clear,0,2013-02-03 23:35:00
5:55 PM,32.0,10.4,41,30.11,10.0,ESE,3.5,-,N/A,,Clear,110,2013-02-03 23:55:00
6:15 PM,32.0,10.4,41,30.09,10.0,East,8.1,-,N/A,,Clear,100,2013-02-04 00:15:00
6:35 PM,32.0,10.4,41,30.10,10.0,East,6.9,-,N/A,,Clear,90,2013-02-04 00:35:00
6:55 PM,32.0,12.2,44,30.10,10.0,East,6.9,-,N/A,,Clear,90,2013-02-04 00:55:00
7:15 PM,32.0,12.2,44,30.10,10.0,East,5.8,-,N/A,,Clear,100,2013-02-04 01:15:00
7:35 PM,30.2,17.6,60,30.09,10.0,Calm,Calm,-,N/A,,Clear,0,2013-02-04 01:35:00
7:55 PM,30.2,15.8,55,30.08,10.0,SE,5.8,-,N/A,,Clear,130,2013-02-04 01:55:00
8:15 PM,32.0,14.0,48,30.07,10.0,SE,6.9,-,N/A,,Clear,140,2013-02-04 02:15:00
8:35 PM,32.0,14.0,48,30.06,10.0,SE,8.1,-,N/A,,Clear,140,2013-02-04 02:35:00
8:55 PM,32.0,15.8,51,30.06,10.0,SE,6.9,-,N/A,,Clear,130,2013-02-04 02:55:00
9:15 PM,32.0,15.8,51,30.05,10.0,SE,8.1,-,N/A,,Clear,130,2013-02-04 03:15:00
9:35 PM,32.0,15.8,51,30.04,10.0,SE,8.1,-,N/A,,Clear,140,2013-02-04 03:35:00
9:55 PM,32.0,15.8,51,30.03,10.0,SE,8.1,-,N/A,,Clear,130,2013-02-04 03:55:00
10:15 PM,32.0,15.8,51,30.02,10.0,SE,8.1,-,N/A,,Clear,130,2013-02-04 04:15:00
10:35 PM,32.0,15.8,51,30.01,10.0,SE,6.9,-,N/A,,Clear,130,2013-02-04 04:35:00
10:55 PM,32.0,17.6,55,30.00,10.0,SE,6.9,-,N/A,,Clear,130,2013-02-04 04:55:00
11:15 PM,32.0,15.8,51,29.99,10.0,SE,5.8,-,N/A,,Clear,140,2013-02-04 05:15:00
11:35 PM,32.0,17.6,55,29.98,10.0,SE,4.6,-,N/A,,Clear,140,2013-02-04 05:35:00
11:55 PM,32.0,17.6,55,29.98,10.0,SE,4.6,-,N/A,,Clear,140,2013-02-04 05:55:00